Flag for Romania Weather past 2 weeks in Timișoara, Romania

Now
86 °F

Passing clouds.


Feels Like: 85 °F
Forecast: 64 / 79 °F
Wind: 8 mph from Northwest

Location: Timisoara Airport

Current Time: Sep 4, 2015 at 5:47:33 PM

Latest Report: Sep 4, 2015 at 5:00 PM


Visibility: N/A

Pressure: 29.92 "Hg

Humidity: 35%

Dew point: 55 °F

Location of TimișoaraLocation

Historic Weather in Timișoara — Graph

°F

Timișoara temperature yesterday

Maximum temperature yesterday: 91 °F (at 4:30 PM)
Minimum temperature yesterday: 66 °F (at 4:00 AM)
Average temperature yesterday: 78 °F

Past Weeks' High & Low Weather Summary

 TemperatureHumidityPressure
High97 °F (Aug 30, 5:30 PM)100% (Aug 20, 8:30 PM)30.21 "Hg (Aug 20, 8:30 PM)
Low57 °F (Aug 24, 3:00 AM)16% (Aug 28, 4:30 PM)29.83 "Hg (Sep 1, 6:30 PM)
Average75 °F64%30.04 "Hg
* Reported Aug 20 4:00 PM — Sep 4 4:30 PM, Timișoara, Weather by CustomWeather, © 2015

Note: Actual official high and low records may vary slightly from our data, if they occured in-between our weather recording intervals... More about our weather records

Advertising

Timișoara weather history for previous 24 hours

 ConditionsComfort  
Time TempWeatherWind HumidityBarometerVisibility
4:30 PM
Fri, Sep 4
88 °FSunny.9 mph35%29.92 "Hg10 mi
4:00 PM86 °FSunny.8 mph40%29.92 "Hg10 mi
3:30 PM88 °FSunny.6 mph40%29.92 "Hg10 mi
3:00 PM88 °FPassing clouds.6 mph38%29.92 "HgN/A
2:30 PM88 °FPassing clouds.7 mph40%29.92 "HgN/A
2:00 PM86 °FPassing clouds.9 mph40%29.92 "HgN/A
1:30 PM86 °FPassing clouds.7 mph40%29.92 "HgN/A
1:00 PM86 °FPassing clouds.6 mph43%29.92 "HgN/A
12:30 PM86 °FSunny.2 mph40%29.92 "Hg10 mi
12:00 PM84 °FSunny.2 mph48%29.92 "Hg10 mi
11:30 AM82 °FPassing clouds.3 mph55%29.92 "HgN/A
11:00 AM81 °FSunny.2 mph58%29.92 "Hg10 mi
10:30 AM77 °FSunny.2 mph65%29.92 "Hg10 mi
10:00 AM77 °FPassing clouds.3 mph61%29.89 "HgN/A
9:30 AM75 °FSunny.2 mph65%29.89 "Hg10 mi
9:00 AM72 °FSunny.3 mph78%29.89 "Hg10 mi
8:30 AM70 °FPassing clouds.3 mph78%29.89 "HgN/A
8:00 AM68 °FPassing clouds.No wind83%29.89 "HgN/A
7:30 AM68 °FClear.No wind83%29.86 "Hg10 mi
7:00 AM68 °FClear.3 mph83%29.86 "Hg10 mi
6:30 AM68 °FPassing clouds.6 mph83%29.86 "HgN/A
6:00 AM66 °FPassing clouds.5 mph88%29.86 "HgN/A
5:30 AM68 °FPassing clouds.3 mph83%29.86 "HgN/A
5:00 AM70 °FPassing clouds.7 mph78%29.86 "HgN/A
4:30 AM70 °FPassing clouds.5 mph78%29.86 "HgN/A
4:00 AM70 °FPassing clouds.2 mph83%29.86 "HgN/A
3:30 AM70 °FSprinkles. Passing clouds.5 mph83%29.86 "HgN/A
3:00 AM70 °FClear.3 mph73%29.86 "Hg10 mi
2:30 AM72 °FClear.6 mph69%29.86 "Hg10 mi
2:00 AM72 °FClear.3 mph65%29.86 "Hg10 mi
1:30 AM70 °FClear.2 mph69%29.86 "Hg10 mi
12:00 AM70 °FClear.3 mph69%29.86 "Hg10 mi
11:30 PM
Thu, Sep 3
73 °FClear.3 mph57%29.86 "Hg10 mi
11:00 PM73 °FClear.3 mph57%29.86 "Hg10 mi
10:30 PM75 °FClear.5 mph54%29.86 "Hg10 mi
10:00 PM75 °FClear.5 mph54%29.86 "Hg10 mi
9:30 PM77 °FClear.5 mph51%29.86 "Hg10 mi
9:00 PM79 °FSunny.5 mph45%29.86 "Hg10 mi
8:30 PM81 °FSunny.6 mph42%29.86 "Hg10 mi
8:00 PM82 °FSunny.5 mph40%29.86 "Hg10 mi
7:30 PM86 °FSunny.5 mph31%29.86 "Hg10 mi
7:00 PM88 °FSunny.5 mph31%29.86 "Hg10 mi
6:30 PM91 °FPassing clouds.3 mph24%29.86 "HgN/A
6:00 PM91 °FPassing clouds.3 mph23%29.86 "HgN/A
5:30 PM91 °FPassing clouds.3 mph23%29.86 "HgN/A
5:00 PM91 °FSunny.1 mph24%29.86 "Hg10 mi
Weather by CustomWeather, © 2015

See weather overviewHow to use our weather pages